Вернуться в каталог

STARLINK-37613

АктивенСвязьSSO
NORAD 69211·PAYLOAD·🇺🇸 United States

Запущен May 26, 2026 с Vandenberg Space Force Base

Loading…

Ближайшие Пролёты (ближайшие 24 часа)

TLE

СвежийSource: CelesTrak SupGP

Эпоха: Sep 14, 2026, 16:08 UTC

1 69211C 26115A   26257.67270833 -.00055627  00000+0 -17269-2 0  2572
2 69211  97.2831 273.9216 0001486  96.3750 217.0312 15.33465926    11

Отслеживайте STARLINK-37613 в реальном времени с AllMySat

Download on the App Store